Newport Airport, OR

3:35 AM PDT on May 26, 2017 (GMT -0700)
Newport Municipal

Weather History for KONP - July, 2014

Change the Weather History Date:

Saturday, July 26, 2014

  Actual Average Record
Temperature  
Mean Temperature 56 °F -  
Max Temperature 64 °F 62 °F 69 °F (2004)
Min Temperature 48 °F 52 °F 41 °F (2013)
Degree Days  
Heating Degree Days 9    
Growing Degree Days 6 (Base 50)    
Moisture  
Dew Point 53 °F    
Average Humidity 87    
Maximum Humidity 100    
Minimum Humidity 73    
Precipitation  
Precipitation 0.00 in - - ()
Sea Level Pressure  
Sea Level Pressure 30.16 in    
Wind  
Wind Speed 6 mph (NNW)    
Max Wind Speed 20 mph    
Max Gust Speed 30 mph    
Visibility 10 miles    
Events      
Averages and records for this station are not official NWS values.
T = Trace of Precipitation, MM = Missing Value Source: NWS Daily Summary

Daily Weather History Graph

Daily Weather History Graph

Search for Another Location

Airport or City:

Trip Planner

Search our weather history database for the weather conditions in past years. The results will help you decide how hot, cold, wet, or windy it might be!

Date:

Astronomy

Jul. 26, 2014 Rise Set
Actual Time 5:56 AM PDT 8:48 PM PDT
Civil Twilight 5:22 AM PDT 9:22 PM PDT
Nautical Twilight 4:38 AM PDT 10:05 PM PDT
Astronomical Twilight 3:47 AM PDT 10:56 PM PDT
Moon 5:57 AM PDT 8:22 PM PDT
Length of Visible Light 16h 00m
Length of Day
14h 52m
Waning Crescent, 0% of the Moon is Illuminated
Jul 26
Waning Crescent
Jul 26
New
Aug 3
First Quarter
Aug 10
Full
Aug 17
Last Quarter

Hourly Weather History & Observations

Time (PDT) Temp. Dew Point Humidity Pressure Visibility Wind Dir Wind Speed Gust Speed Precip Events Conditions
12:15 AM 51.8 °F 50.0 °F 94% 30.14 in 10.0 mi Calm Calm - N/A   Clear
12:35 AM 50.0 °F 48.2 °F 94% 30.14 in 10.0 mi SE 3.5 mph - N/A   Clear
12:55 AM 50.0 °F 50.0 °F 100% 30.14 in 10.0 mi Calm Calm - N/A   Clear
1:15 AM 50.0 °F 50.0 °F 100% 30.14 in 10.0 mi Calm Calm - N/A   Clear
1:35 AM 50.0 °F 48.2 °F 94% 30.14 in 10.0 mi Calm Calm - N/A   Clear
1:55 AM 50.0 °F 48.2 °F 94% 30.14 in 10.0 mi Calm Calm - N/A   Clear
2:15 AM 50.0 °F 48.2 °F 94% 30.14 in 10.0 mi Calm Calm - N/A   Clear
2:35 AM 48.2 °F 46.4 °F 93% 30.14 in 10.0 mi Calm Calm - N/A   Clear
2:55 AM 48.2 °F 48.2 °F 100% 30.14 in 10.0 mi Calm Calm - N/A   Clear
3:15 AM 50.0 °F 48.2 °F 94% 30.14 in 10.0 mi Calm Calm - N/A   Clear
3:35 AM 50.0 °F 48.2 °F 94% 30.14 in 10.0 mi Calm Calm - N/A   Clear
3:55 AM 50.0 °F 48.2 °F 94% 30.15 in 10.0 mi Calm Calm - N/A   Clear
4:15 AM 50.0 °F 48.2 °F 94% 30.15 in 10.0 mi Calm Calm - N/A   Clear
4:35 AM 48.2 °F 48.2 °F 100% 30.15 in 10.0 mi Calm Calm - N/A   Clear
4:55 AM 50.0 °F 48.2 °F 94% 30.15 in 10.0 mi ENE 3.5 mph - N/A   Clear
5:15 AM 48.2 °F 46.4 °F 93% 30.15 in 10.0 mi Calm Calm - N/A   Clear
5:35 AM 48.2 °F 48.2 °F 100% 30.15 in 10.0 mi Calm Calm - N/A   Clear
5:55 AM 48.2 °F 46.4 °F 93% 30.15 in 7.0 mi Calm Calm - N/A   Clear
6:15 AM 48.2 °F 46.4 °F 93% 30.15 in 10.0 mi Calm Calm - N/A   Clear
6:35 AM 48.2 °F 48.2 °F 100% 30.16 in 10.0 mi Calm Calm - N/A   Clear
6:55 AM 50.0 °F 50.0 °F 100% 30.16 in 10.0 mi Calm Calm - N/A   Clear
7:15 AM 51.8 °F 51.8 °F 100% 30.16 in 10.0 mi Calm Calm - N/A   Clear
8:35 AM 57.2 °F 53.6 °F 88% 30.17 in 10.0 mi Calm Calm - N/A   Clear
8:55 AM 59.0 °F 53.6 °F 82% 30.17 in 10.0 mi Calm Calm - N/A   Clear
9:35 AM 60.8 °F 53.6 °F 77% 30.17 in 10.0 mi NNW 3.5 mph - N/A   Clear
10:55 AM 62.6 °F 55.4 °F 77% 30.18 in 10.0 mi NNW 13.8 mph - N/A   Clear
11:15 AM 62.6 °F 55.4 °F 77% 30.19 in 10.0 mi NNW 12.7 mph 19.6 mph N/A   Clear
11:35 AM 62.6 °F 55.4 °F 77% 30.18 in 10.0 mi NNW 16.1 mph - N/A   Clear
11:55 AM 62.6 °F 55.4 °F 77% 30.18 in 10.0 mi NNW 17.3 mph 23.0 mph N/A   Clear
12:15 PM 62.6 °F 55.4 °F 77% 30.18 in 10.0 mi NNW 17.3 mph 23.0 mph N/A   Clear
12:35 PM 64.4 °F 57.2 °F 77% 30.18 in 10.0 mi North 17.3 mph 25.3 mph N/A   Clear
12:55 PM 64.4 °F 57.2 °F 77% 30.17 in 10.0 mi NNW 18.4 mph - N/A   Clear
1:15 PM 64.4 °F 57.2 °F 77% 30.17 in 7.0 mi NNW 19.6 mph - N/A   Clear
1:35 PM 64.4 °F 57.2 °F 77% 30.17 in 10.0 mi NNW 17.3 mph 24.2 mph N/A   Clear
1:55 PM 64.4 °F 57.2 °F 77% 30.17 in 7.0 mi NNW 19.6 mph 25.3 mph N/A   Clear
2:15 PM 64.4 °F 57.2 °F 77% 30.17 in 10.0 mi NNW 15.0 mph 20.7 mph N/A   Clear
2:35 PM 64.4 °F 59.0 °F 83% 30.16 in 10.0 mi North 15.0 mph 20.7 mph N/A   Clear
2:55 PM 64.4 °F 59.0 °F 83% 30.16 in 10.0 mi North 12.7 mph 24.2 mph N/A   Clear
3:15 PM 64.4 °F 57.2 °F 77% 30.16 in 10.0 mi North 17.3 mph 21.9 mph N/A   Clear
3:35 PM 64.4 °F 57.2 °F 77% 30.16 in 10.0 mi NNW 16.1 mph 21.9 mph N/A   Clear
3:55 PM 64.4 °F 57.2 °F 77% 30.16 in 10.0 mi NNW 13.8 mph 25.3 mph N/A   Clear
4:15 PM 64.4 °F 55.4 °F 73% 30.16 in 10.0 mi NNW 17.3 mph 24.2 mph N/A   Clear
4:35 PM 64.4 °F 55.4 °F 73% 30.16 in 10.0 mi North 15.0 mph 21.9 mph N/A   Clear
4:55 PM 64.4 °F 55.4 °F 73% 30.16 in 10.0 mi North 15.0 mph 23.0 mph N/A   Clear
5:15 PM 64.4 °F 55.4 °F 73% 30.16 in 10.0 mi NNW 16.1 mph 24.2 mph N/A   Clear
5:35 PM 62.6 °F 55.4 °F 77% 30.15 in 10.0 mi North 18.4 mph 24.2 mph N/A   Clear
5:55 PM 62.6 °F 57.2 °F 82% 30.15 in 10.0 mi North 15.0 mph 29.9 mph N/A   Clear
6:15 PM 62.6 °F 57.2 °F 82% 30.15 in 10.0 mi NNW 19.6 mph 25.3 mph N/A   Clear
6:35 PM 62.6 °F 55.4 °F 77% 30.15 in 10.0 mi NNW 18.4 mph - N/A   Clear
6:55 PM 60.8 °F 55.4 °F 82% 30.14 in 10.0 mi NNW 17.3 mph 26.5 mph N/A   Clear
7:15 PM 60.8 °F 55.4 °F 82% 30.14 in 10.0 mi NNW 17.3 mph 23.0 mph N/A   Clear
7:35 PM 60.8 °F 55.4 °F 82% 30.14 in 10.0 mi NNW 17.3 mph 21.9 mph N/A   Clear
7:55 PM 60.8 °F 55.4 °F 82% 30.14 in 10.0 mi North 17.3 mph 25.3 mph N/A   Clear
8:15 PM 59.0 °F 55.4 °F 88% 30.14 in 10.0 mi NNW 15.0 mph 25.3 mph N/A   Clear
8:35 PM 59.0 °F 55.4 °F 88% 30.15 in 10.0 mi NNW 9.2 mph - N/A   Clear
8:55 PM 59.0 °F 55.4 °F 88% 30.15 in 10.0 mi NNW 9.2 mph - N/A   Clear
9:15 PM 59.0 °F 55.4 °F 88% 30.15 in 10.0 mi North 9.2 mph - N/A   Clear
9:35 PM 59.0 °F 55.4 °F 88% 30.15 in 10.0 mi NNW 8.1 mph - N/A   Clear
9:55 PM 57.2 °F 53.6 °F 88% 30.15 in 10.0 mi North 5.8 mph - N/A   Clear
10:15 PM 55.4 °F 53.6 °F 94% 30.16 in 10.0 mi North 4.6 mph - N/A   Clear
10:35 PM 55.4 °F 53.6 °F 94% 30.16 in 7.0 mi North 4.6 mph - N/A   Clear
10:55 PM 55.4 °F 53.6 °F 94% 30.16 in 7.0 mi North 5.8 mph - N/A   Clear
11:15 PM 55.4 °F 53.6 °F 94% 30.16 in 7.0 mi North 6.9 mph - N/A   Clear
11:35 PM 55.4 °F 53.6 °F 94% 30.16 in 7.0 mi North 6.9 mph - N/A   Clear
11:55 PM 55.4 °F 53.6 °F 94% 30.16 in 7.0 mi NNW 5.8 mph - N/A   Clear